| time (UTC) | temp C | wind direction | speed KPH | gust KPH | rain 1hr cm | rain 24hr cm | rain mn cm | humidity % | barometer mb |
| 20260504171027 | 26 | 91 | 0.0 | 6.4 | 0.00 | 0.05 | 0.00 | 36 | 1017.2 |
| 20260504170522 | 26 | 0 | 0.0 | 9.7 | 0.00 | 0.05 | 0.00 | 33 | 1017.3 |
| 20260504151020 | 23 | 294 | 1.6 | 8.0 | 0.00 | 0.05 | 0.00 | 41 | 1018.4 |
| 20260504150520 | 23 | 336 | 0.0 | 9.7 | 0.00 | 0.05 | 0.00 | 44 | 1018.4 |
| 20260504141022 | 21 | 0 | 0.0 | 6.4 | 0.00 | 0.05 | 0.00 | 52 | 1018.5 |
| 20260504140518 | 21 | 0 | 1.6 | 6.4 | 0.00 | 0.05 | 0.00 | 53 | 1018.5 |
| 20260504130519 | 13 | 0 | 0.0 | 1.6 | 0.00 | 0.08 | 0.00 | 94 | 1018.7 |
| 20260504110521 | 8 | 0 | 0.0 | 0.0 | 0.00 | 0.08 | 0.00 | 90 | 1018.5 |
| 20260504100518 | 8 | 0 | 0.0 | 0.0 | 0.00 | 0.08 | 0.00 | 90 | 1018.2 |
| 20260504081538 | 9 | 0 | 0.0 | 3.2 | 0.00 | 0.08 | 0.00 | 89 | 1018.0 |
| 20260504081019 | 9 | 0 | 0.0 | 3.2 | 0.00 | 0.08 | 0.00 | 89 | 1018.1 |
| 20260504080519 | 9 | 0 | 0.0 | 0.0 | 0.00 | 0.08 | 0.00 | 88 | 1017.9 |
| 20260504050519 | 10 | 0 | 0.0 | 0.0 | 0.00 | 0.10 | 0.00 | 83 | 1018.7 |
| 20260504045519 | 10 | 0 | 0.0 | 0.0 | 0.00 | 0.10 | 0.00 | 82 | 1018.7 |
| 20260504045019 | 10 | 0 | 0.0 | 0.0 | 0.00 | 0.10 | 0.00 | 82 | 1018.7 |
| 20260504044543 | 10 | 0 | 0.0 | 0.0 | 0.00 | 0.10 | 0.00 | 81 | 1018.6 |
| 20260504044019 | 10 | 0 | 0.0 | 0.0 | 0.00 | 0.10 | 0.00 | 80 | 1018.5 |
| 20260504043523 | 10 | 0 | 0.0 | 0.0 | 0.00 | 0.10 | 0.00 | 79 | 1018.5 |
| 20260504043036 | 10 | 0 | 0.0 | 0.0 | 0.00 | 0.10 | 0.00 | 79 | 1018.3 |
| 20260504042523 | 11 | 0 | 0.0 | 0.0 | 0.00 | 0.10 | 0.00 | 79 | 1018.4 |
| 20260504042019 | 11 | 0 | 0.0 | 0.0 | 0.00 | 0.10 | 0.00 | 79 | 1018.4 |
| 20260504041536 | 11 | 0 | 0.0 | 0.0 | 0.00 | 0.10 | 0.00 | 79 | 1018.4 |
| 20260504041020 | 11 | 0 | 0.0 | 0.0 | 0.00 | 0.10 | 0.00 | 78 | 1018.5 |
| 20260504040520 | 11 | 0 | 0.0 | 0.0 | 0.00 | 0.10 | 0.00 | 78 | 1018.5 |
| 20260504040058 | 11 | 0 | 0.0 | 0.0 | 0.00 | 0.10 | 0.00 | 78 | 1018.5 |
| 20260504035520 | 11 | 0 | 0.0 | 0.0 | 0.00 | 0.10 | 0.10 | 77 | 1018.6 |
| 20260504035020 | 11 | 0 | 0.0 | 0.0 | 0.00 | 0.10 | 0.10 | 77 | 1018.5 |
| 20260504034553 | 11 | 0 | 0.0 | 0.0 | 0.00 | 0.10 | 0.10 | 77 | 1018.4 |
| 20260504034020 | 11 | 0 | 0.0 | 0.0 | 0.00 | 0.10 | 0.10 | 77 | 1018.4 |
| 20260504033521 | 11 | 0 | 0.0 | 0.0 | 0.00 | 0.10 | 0.10 | 76 | 1018.4 |
| 20260504033037 | 11 | 0 | 0.0 | 0.0 | 0.00 | 0.10 | 0.10 | 76 | 1018.5 |
| 20260504032521 | 11 | 0 | 0.0 | 0.0 | 0.00 | 0.10 | 0.10 | 76 | 1018.5 |
| 20260504032021 | 11 | 0 | 0.0 | 0.0 | 0.00 | 0.10 | 0.10 | 75 | 1018.5 |
| 20260504031536 | 12 | 0 | 0.0 | 0.0 | 0.00 | 0.10 | 0.10 | 75 | 1018.5 |
| 20260504031019 | 12 | 0 | 0.0 | 0.0 | 0.00 | 0.10 | 0.10 | 74 | 1018.4 |
| 20260504030520 | 12 | 0 | 0.0 | 0.0 | 0.00 | 0.10 | 0.10 | 74 | 1018.5 |
| 20260504030039 | 12 | 0 | 0.0 | 0.0 | 0.00 | 0.10 | 0.10 | 73 | 1018.5 |
| 20260504025522 | 12 | 0 | 0.0 | 0.0 | 0.00 | 0.10 | 0.10 | 73 | 1018.5 |
| 20260504025022 | 12 | 0 | 0.0 | 0.0 | 0.00 | 0.10 | 0.10 | 73 | 1018.5 |
| 20260504024535 | 12 | 0 | 0.0 | 0.0 | 0.00 | 0.10 | 0.10 | 72 | 1018.6 |
| 20260504024021 | 12 | 0 | 0.0 | 0.0 | 0.00 | 0.10 | 0.10 | 71 | 1018.6 |
| 20260504023522 | 12 | 0 | 0.0 | 0.0 | 0.00 | 0.10 | 0.10 | 71 | 1018.6 |
| 20260504023039 | 12 | 0 | 0.0 | 0.0 | 0.00 | 0.10 | 0.10 | 70 | 1018.5 |
| 20260504022521 | 13 | 0 | 0.0 | 0.0 | 0.00 | 0.10 | 0.10 | 69 | 1018.4 |
| 20260504022022 | 13 | 0 | 0.0 | 0.0 | 0.00 | 0.10 | 0.10 | 69 | 1018.4 |
| 20260504021538 | 13 | 0 | 0.0 | 0.0 | 0.00 | 0.10 | 0.10 | 68 | 1018.3 |
| 20260504021020 | 13 | 0 | 0.0 | 0.0 | 0.00 | 0.10 | 0.10 | 68 | 1018.3 |
| 20260504020524 | 13 | 0 | 0.0 | 0.0 | 0.00 | 0.10 | 0.10 | 67 | 1018.1 |
| 20260504020036 | 13 | 0 | 0.0 | 0.0 | 0.00 | 0.10 | 0.10 | 67 | 1018.1 |
| 20260504015522 | 13 | 0 | 0.0 | 0.0 | 0.00 | 0.10 | 0.10 | 66 | 1018.0 |
| 20260504015022 | 13 | 0 | 0.0 | 0.0 | 0.00 | 0.10 | 0.10 | 66 | 1018.0 |
| 20260504014536 | 14 | 0 | 0.0 | 0.0 | 0.00 | 0.10 | 0.10 | 65 | 1018.0 |
| 20260504014022 | 14 | 0 | 0.0 | 0.0 | 0.00 | 0.10 | 0.10 | 65 | 1017.9 |
| 20260504013522 | 14 | 0 | 0.0 | 0.0 | 0.03 | 0.10 | 0.10 | 64 | 1017.8 |
| 20260504013046 | 15 | 0 | 0.0 | 0.0 | 0.03 | 0.10 | 0.10 | 63 | 1017.8 |
| 20260504012523 | 15 | 0 | 0.0 | 0.0 | 0.03 | 0.10 | 0.10 | 63 | 1017.7 |
| 20260504012022 | 15 | 0 | 0.0 | 0.0 | 0.03 | 0.10 | 0.10 | 62 | 1017.7 |
| 20260504011537 | 15 | 0 | 0.0 | 0.0 | 0.03 | 0.10 | 0.10 | 61 | 1017.6 |
| 20260504011019 | 15 | 0 | 0.0 | 0.0 | 0.03 | 0.10 | 0.10 | 60 | 1017.5 |
| 20260504010520 | 16 | 0 | 0.0 | 0.0 | 0.03 | 0.10 | 0.10 | 59 | 1017.4 |
| 20260504010035 | 16 | 0 | 0.0 | 0.0 | 0.03 | 0.10 | 0.10 | 60 | 1017.4 |
| 20260504005519 | 16 | 0 | 0.0 | 0.0 | 0.03 | 0.10 | 0.10 | 58 | 1017.3 |
| 20260504005019 | 16 | 0 | 0.0 | 0.0 | 0.03 | 0.10 | 0.10 | 56 | 1017.2 |
| 20260504004532 | 16 | 0 | 0.0 | 0.0 | 0.03 | 0.10 | 0.10 | 57 | 1017.2 |
| 20260504004019 | 17 | 0 | 0.0 | 0.0 | 0.03 | 0.10 | 0.10 | 56 | 1017.1 |
| 20260504003519 | 17 | 0 | 0.0 | 0.0 | 0.00 | 0.08 | 0.08 | 55 | 1017.1 |
| 20260504003036 | 17 | 0 | 0.0 | 0.0 | 0.00 | 0.08 | 0.08 | 53 | 1017.1 |
| 20260504002519 | 17 | 0 | 0.0 | 0.0 | 0.00 | 0.08 | 0.08 | 53 | 1017.2 |
| 20260504002021 | 18 | 0 | 0.0 | 0.0 | 0.00 | 0.08 | 0.08 | 53 | 1017.1 |
| 20260504001536 | 18 | 0 | 0.0 | 0.0 | 0.00 | 0.08 | 0.08 | 50 | 1017.1 |
| 20260504001018 | 18 | 0 | 0.0 | 0.0 | 0.00 | 0.08 | 0.08 | 49 | 1017.1 |
| 20260504000518 | 19 | 0 | 0.0 | 0.0 | 0.00 | 0.08 | 0.08 | 49 | 1016.9 |
| 20260504000036 | 19 | 0 | 0.0 | 0.0 | 0.00 | 0.08 | 0.08 | 49 | 1016.8 |
| 20260503235518 | 20 | 0 | 0.0 | 0.0 | 0.00 | 0.08 | 0.08 | 47 | 1016.8 |
| 20260503235019 | 20 | 0 | 0.0 | 0.0 | 0.00 | 0.08 | 0.08 | 46 | 1016.9 |
| 20260503234535 | 20 | 0 | 0.0 | 1.6 | 0.00 | 0.08 | 0.08 | 46 | 1016.8 |
| 20260503234019 | 20 | 0 | 0.0 | 1.6 | 0.00 | 0.08 | 0.08 | 45 | 1016.8 |
| 20260503233517 | 20 | 0 | 0.0 | 1.6 | 0.00 | 0.08 | 0.08 | 44 | 1016.8 |
| 20260503233040 | 21 | 0 | 0.0 | 0.0 | 0.00 | 0.08 | 0.08 | 43 | 1016.8 |
| 20260503232520 | 21 | 0 | 0.0 | 3.2 | 0.00 | 0.08 | 0.08 | 43 | 1016.8 |
| 20260503232019 | 21 | 0 | 0.0 | 3.2 | 0.00 | 0.08 | 0.08 | 42 | 1016.8 |
| 20260503231536 | 21 | 0 | 0.0 | 3.2 | 0.00 | 0.08 | 0.08 | 42 | 1016.9 |
| 20260503231017 | 21 | 0 | 0.0 | 3.2 | 0.00 | 0.08 | 0.08 | 43 | 1016.9 |
| 20260503230520 | 22 | 304 | 0.0 | 3.2 | 0.00 | 0.08 | 0.08 | 41 | 1016.9 |
| 20260503230037 | 22 | 0 | 0.0 | 3.2 | 0.00 | 0.08 | 0.08 | 40 | 1016.9 |
| 20260503225520 | 22 | 0 | 0.0 | 3.2 | 0.00 | 0.10 | 0.08 | 39 | 1016.8 |
| 20260503225019 | 22 | 0 | 0.0 | 3.2 | 0.00 | 0.10 | 0.08 | 39 | 1017.0 |
| 20260503224536 | 22 | 0 | 0.0 | 3.2 | 0.00 | 0.10 | 0.08 | 39 | 1017.0 |
| 20260503224019 | 22 | 0 | 0.0 | 3.2 | 0.00 | 0.10 | 0.08 | 40 | 1017.0 |
| 20260503223519 | 22 | 0 | 0.0 | 1.6 | 0.00 | 0.10 | 0.08 | 39 | 1017.0 |
| 20260503223036 | 23 | 0 | 0.0 | 6.4 | 0.00 | 0.10 | 0.08 | 39 | 1017.0 |
| 20260503222518 | 23 | 0 | 0.0 | 6.4 | 0.00 | 0.10 | 0.08 | 39 | 1016.9 |
| 20260503222020 | 23 | 0 | 0.0 | 6.4 | 0.00 | 0.10 | 0.08 | 39 | 1017.0 |
| 20260503221543 | 23 | 0 | 1.6 | 6.4 | 0.00 | 0.10 | 0.08 | 37 | 1016.9 |
| 20260503221020 | 23 | 0 | 0.0 | 6.4 | 0.00 | 0.10 | 0.08 | 39 | 1017.0 |
| 20260503220520 | 23 | 0 | 0.0 | 4.8 | 0.00 | 0.10 | 0.08 | 39 | 1017.0 |
| 20260503220040 | 23 | 0 | 0.0 | 9.7 | 0.00 | 0.10 | 0.08 | 38 | 1017.0 |
| 20260503215521 | 23 | 0 | 1.6 | 9.7 | 0.00 | 0.10 | 0.08 | 38 | 1017.1 |
| 20260503215025 | 23 | 294 | 1.6 | 9.7 | 0.00 | 0.10 | 0.08 | 38 | 1017.1 |
| 20260503214539 | 23 | 286 | 1.6 | 11.3 | 0.00 | 0.10 | 0.08 | 38 | 1017.2 |
| 20260503214022 | 23 | 290 | 1.6 | 14.5 | 0.00 | 0.10 | 0.08 | 37 | 1017.0 |
| 20260503213525 | 23 | 0 | 4.8 | 14.5 | 0.00 | 0.10 | 0.08 | 36 | 1017.1 |
| 20260503213043 | 23 | 265 | 1.6 | 14.5 | 0.00 | 0.10 | 0.08 | 36 | 1017.0 |
| 20260503212521 | 23 | 0 | 0.0 | 12.9 | 0.00 | 0.10 | 0.08 | 37 | 1017.1 |
| 20260503212021 | 23 | 0 | 1.6 | 12.9 | 0.00 | 0.10 | 0.08 | 37 | 1017.2 |
| 20260503211537 | 23 | 0 | 1.6 | 9.7 | 0.00 | 0.10 | 0.08 | 37 | 1017.1 |
| 20260503211021 | 23 | 292 | 0.0 | 4.8 | 0.00 | 0.10 | 0.08 | 37 | 1017.1 |
| 20260503210525 | 23 | 281 | 0.0 | 8.0 | 0.00 | 0.10 | 0.08 | 36 | 1017.1 |
| 20260503210039 | 23 | 0 | 0.0 | 8.0 | 0.00 | 0.10 | 0.08 | 37 | 1017.2 |
| 20260503205522 | 23 | 0 | 0.0 | 9.7 | 0.00 | 0.10 | 0.08 | 38 | 1017.3 |
| 20260503205023 | 23 | 0 | 0.0 | 9.7 | 0.00 | 0.10 | 0.08 | 38 | 1017.2 |
| 20260503204546 | 23 | 0 | 1.6 | 9.7 | 0.00 | 0.10 | 0.08 | 38 | 1017.3 |
| 20260503204022 | 23 | 257 | 0.0 | 11.3 | 0.00 | 0.10 | 0.08 | 37 | 1017.3 |
| 20260503203522 | 23 | 277 | 1.6 | 11.3 | 0.00 | 0.10 | 0.08 | 36 | 1017.3 |
| 20260503203042 | 23 | 0 | 1.6 | 11.3 | 0.00 | 0.10 | 0.08 | 36 | 1017.5 |
| 20260503202522 | 23 | 0 | 1.6 | 9.7 | 0.00 | 0.10 | 0.08 | 38 | 1017.5 |
| 20260503202021 | 23 | 0 | 0.0 | 12.9 | 0.00 | 0.10 | 0.08 | 37 | 1017.6 |
| 20260503201539 | 23 | 0 | 1.6 | 12.9 | 0.00 | 0.10 | 0.08 | 36 | 1017.6 |
| 20260503201024 | 23 | 0 | 1.6 | 11.3 | 0.00 | 0.10 | 0.08 | 36 | 1017.8 |
| 20260503200520 | 23 | 0 | 0.0 | 3.2 | 0.03 | 0.10 | 0.08 | 37 | 1017.7 |
| 20260503200037 | 23 | 0 | 0.0 | 6.4 | 0.03 | 0.10 | 0.08 | 38 | 1017.8 |
| 20260503195519 | 23 | 0 | 0.0 | 12.9 | 0.03 | 0.10 | 0.08 | 38 | 1018.0 |
| 20260503195020 | 22 | 280 | 3.2 | 12.9 | 0.03 | 0.10 | 0.08 | 35 | 1018.1 |
| 20260503194538 | 23 | 279 | 1.6 | 11.3 | 0.03 | 0.10 | 0.08 | 36 | 1018.1 |
| 20260503194020 | 22 | 0 | 0.0 | 14.5 | 0.03 | 0.10 | 0.08 | 38 | 1018.1 |
| 20260503193522 | 22 | 0 | 4.8 | 14.5 | 0.03 | 0.10 | 0.08 | 36 | 1018.2 |
| 20260503193036 | 22 | 224 | 0.0 | 11.3 | 0.03 | 0.10 | 0.08 | 38 | 1018.4 |
| 20260503192521 | 22 | 94 | 0.0 | 11.3 | 0.03 | 0.10 | 0.08 | 37 | 1018.4 |
| 20260503192018 | 22 | 261 | 0.0 | 14.5 | 0.03 | 0.10 | 0.08 | 38 | 1018.5 |
| 20260503191538 | 22 | 291 | 3.2 | 14.5 | 0.03 | 0.10 | 0.08 | 37 | 1018.6 |
| 20260503191021 | 22 | 71 | 1.6 | 14.5 | 0.00 | 0.08 | 0.05 | 35 | 1018.8 |
| 20260503190523 | 22 | 66 | 1.6 | 9.7 | 0.00 | 0.08 | 0.05 | 35 | 1018.8 |
| 20260503190049 | 22 | 0 | 1.6 | 9.7 | 0.00 | 0.08 | 0.05 | 35 | 1018.9 |
| 20260503185520 | 22 | 0 | 0.0 | 8.0 | 0.00 | 0.10 | 0.05 | 36 | 1019.1 |
| 20260503185020 | 22 | 0 | 1.6 | 16.1 | 0.00 | 0.10 | 0.05 | 34 | 1019.2 |
| 20260503184536 | 22 | 252 | 3.2 | 16.1 | 0.00 | 0.10 | 0.05 | 36 | 1019.3 |
| 20260503184019 | 22 | 288 | 3.2 | 16.1 | 0.00 | 0.10 | 0.05 | 34 | 1019.2 |
| 20260503183518 | 22 | 0 | 0.0 | 6.4 | 0.00 | 0.10 | 0.05 | 36 | 1019.3 |
| 20260503183042 | 22 | 271 | 0.0 | 6.4 | 0.00 | 0.10 | 0.05 | 37 | 1019.3 |
| 20260503182519 | 22 | 272 | 0.0 | 6.4 | 0.00 | 0.10 | 0.05 | 37 | 1019.5 |
| 20260503182019 | 22 | 0 | 0.0 | 9.7 | 0.00 | 0.10 | 0.05 | 36 | 1019.5 |
| 20260503181536 | 22 | 0 | 1.6 | 16.1 | 0.00 | 0.10 | 0.05 | 35 | 1019.5 |
| 20260503181022 | 22 | 0 | 1.6 | 16.1 | 0.00 | 0.10 | 0.05 | 37 | 1019.7 |
| 20260503180522 | 22 | 177 | 1.6 | 8.0 | 0.00 | 0.10 | 0.05 | 37 | 1019.6 |
| 20260503180039 | 22 | 113 | 0.0 | 6.4 | 0.00 | 0.10 | 0.05 | 39 | 1019.7 |
| 20260503175523 | 22 | 0 | 0.0 | 16.1 | 0.00 | 0.10 | 0.05 | 38 | 1019.8 |
| 20260503175022 | 22 | 249 | 0.0 | 16.1 | 0.00 | 0.10 | 0.05 | 37 | 1019.9 |
| 20260503174539 | 22 | 0 | 3.2 | 12.9 | 0.00 | 0.10 | 0.05 | 38 | 1019.8 |
| 20260503174022 | 22 | 0 | 0.0 | 6.4 | 0.00 | 0.10 | 0.05 | 39 | 1019.8 |
| 20260503173521 | 22 | 0 | 0.0 | 6.4 | 0.00 | 0.10 | 0.05 | 39 | 1019.8 |
| 20260503173056 | 22 | 0 | 0.0 | 6.4 | 0.00 | 0.10 | 0.05 | 37 | 1019.8 |
| 20260503172521 | 21 | 70 | 0.0 | 6.4 | 0.00 | 0.10 | 0.05 | 40 | 1019.9 |
| 20260503172021 | 21 | 0 | 0.0 | 12.9 | 0.00 | 0.10 | 0.05 | 41 | 1020.1 |
| 20260503171542 | 21 | 162 | 0.0 | 12.9 | 0.00 | 0.10 | 0.05 | 43 | 1020.1 |